�������l�o���
Date,Time,MP-1(��Sv/h),MP-2(��Sv/h),MP-3(��Sv/h),MP-4(��Sv/h),MP-5(��Sv/h),MP-6(��Sv/h),MP-7(��Sv/h),MP-8(��Sv/h),����,����(m/s),���J
2023/07/25,00:00,0.534,0.812,0.496,0.971,0.723,0.327,0.571,0.535,�쓌,1.7,��
2023/07/25,00:10,0.535,0.813,0.494,0.973,0.722,0.326,0.570,0.536,�쓌,1.7,��
2023/07/25,00:20,0.534,0.812,0.495,0.973,0.722,0.324,0.571,0.534,��쓌,1.9,��
2023/07/25,00:30,0.535,0.813,0.494,0.971,0.722,0.325,0.569,0.536,��쐼,2.8,��
2023/07/25,00:40,0.534,0.812,0.495,0.971,0.721,0.325,0.570,0.536,��쐼,4.1,��
2023/07/25,00:50,0.533,0.812,0.493,0.970,0.721,0.325,0.570,0.535,��쐼,4.4,��
2023/07/25,01:00,0.533,0.811,0.493,0.970,0.721,0.326,0.570,0.536,��쐼,3.9,��
2023/07/25,01:10,0.533,0.813,0.494,0.971,0.720,0.324,0.570,0.536,��쐼,3.9,��
2023/07/25,01:20,0.533,0.810,0.494,0.972,0.722,0.326,0.570,0.535,��쐼,3.6,��
2023/07/25,01:30,0.535,0.811,0.494,0.972,0.721,0.325,0.571,0.537,��쐼,3.0,��
2023/07/25,01:40,0.534,0.813,0.493,0.971,0.721,0.326,0.571,0.538,��쐼,2.6,��
2023/07/25,01:50,0.534,0.814,0.494,0.971,0.723,0.325,0.569,0.535,��쐼,2.5,��
2023/07/25,02:00,0.533,0.812,0.494,0.973,0.721,0.326,0.571,0.536,��,2.6,��
2023/07/25,02:10,0.533,0.811,0.494,0.974,0.722,0.325,0.571,0.535,��쐼,2.0,��
2023/07/25,02:20,0.534,0.813,0.495,0.970,0.722,0.327,0.570,0.537,��쐼,1.1,��
2023/07/25,02:30,0.532,0.810,0.495,0.971,0.723,0.326,0.571,0.535,-,CALM,��
2023/07/25,02:40,0.533,0.814,0.493,0.971,0.722,0.326,0.571,0.534,��쐼,0.9,��
2023/07/25,02:50,0.533,0.812,0.494,0.974,0.721,0.325,0.572,0.536,��,0.9,��
2023/07/25,03:00,0.534,0.814,0.496,0.972,0.722,0.327,0.570,0.535,�k�k��,2.6,��
2023/07/25,03:10,0.535,0.813,0.493,0.971,0.722,0.327,0.572,0.535,�k�k��,3.6,��
2023/07/25,03:20,0.535,0.813,0.495,0.970,0.723,0.325,0.572,0.537,�k��,2.5,��
2023/07/25,03:30,0.534,0.812,0.495,0.971,0.722,0.327,0.570,0.536,�k��,3.3,��
2023/07/25,03:40,0.535,0.814,0.495,0.973,0.720,0.327,0.574,0.537,�k�k��,3.5,��
2023/07/25,03:50,0.534,0.814,0.497,0.972,0.724,0.326,0.572,0.536,�k�k��,3.2,��
2023/07/25,04:00,0.535,0.815,0.494,0.972,0.721,0.326,0.571,0.538,�k�k��,2.0,��
2023/07/25,04:10,0.535,0.814,0.494,0.974,0.723,0.326,0.571,0.537,�k�k��,1.7,��
2023/07/25,04:20,0.535,0.815,0.495,0.971,0.723,0.327,0.572,0.536,�k�k��,2.0,��
2023/07/25,04:30,0.533,0.814,0.496,0.973,0.721,0.326,0.571,0.537,�k�k��,1.5,��
2023/07/25,04:40,0.536,0.813,0.497,0.974,0.720,0.324,0.572,0.536,�k�k��,2.9,��
2023/07/25,04:50,0.534,0.813,0.495,0.973,0.721,0.326,0.570,0.535,�k�k��,3.9,��
2023/07/25,05:00,0.534,0.813,0.495,0.971,0.722,0.326,0.572,0.536,�k�k��,3.9,��
2023/07/25,05:10,0.535,0.811,0.494,0.973,0.723,0.327,0.571,0.536,�k,3.8,��
2023/07/25,05:20,0.536,0.815,0.494,0.971,0.722,0.325,0.571,0.537,�k,2.9,��
2023/07/25,05:30,0.535,0.813,0.494,0.972,0.721,0.325,0.570,0.535,�k�k��,3.1,��
2023/07/25,05:40,0.533,0.812,0.494,0.969,0.720,0.325,0.570,0.537,�k�k��,3.1,��
2023/07/25,05:50,0.533,0.812,0.493,0.970,0.721,0.326,0.571,0.536,�k�k��,2.3,��
2023/07/25,06:00,0.533,0.812,0.492,0.970,0.722,0.324,0.570,0.534,�k�k��,1.7,��
2023/07/25,06:10,0.533,0.813,0.493,0.972,0.721,0.325,0.571,0.535,�k��,1.7,��
2023/07/25,06:20,0.533,0.812,0.494,0.973,0.719,0.325,0.572,0.538,�k��,2.0,��
2023/07/25,06:30,0.534,0.814,0.494,0.972,0.722,0.325,0.571,0.536,�k�k��,1.5,��
2023/07/25,06:40,0.533,0.814,0.493,0.971,0.719,0.326,0.572,0.536,�k,1.4,��
2023/07/25,06:50,0.533,0.812,0.493,0.972,0.722,0.326,0.573,0.535,�k,1.5,��
2023/07/25,07:00,0.533,0.812,0.493,0.971,0.721,0.325,0.572,0.537,�k�k��,1.7,��
2023/07/25,07:10,0.533,0.810,0.494,0.971,0.718,0.325,0.573,0.536,�k�k��,1.4,��
2023/07/25,07:20,0.533,0.811,0.495,0.971,0.720,0.325,0.572,0.536,�k,2.5,��
2023/07/25,07:30,0.533,0.810,0.493,0.971,0.721,0.326,0.573,0.535,�k,2.6,��
2023/07/25,07:40,0.533,0.810,0.492,0.971,0.720,0.325,0.573,0.534,�k,3.1,��
2023/07/25,07:50,0.534,0.811,0.493,0.971,0.718,0.325,0.573,0.536,�k,3.1,��
2023/07/25,08:00,0.532,0.811,0.493,0.970,0.721,0.326,0.574,0.535,�k�k��,3.3,��
2023/07/25,08:10,0.532,0.809,0.492,0.971,0.720,0.324,0.573,0.536,�k�k��,4.1,��
2023/07/25,08:20,0.533,0.809,0.493,0.971,0.719,0.324,0.572,0.535,�k,3.9,��
2023/07/25,08:30,0.533,0.810,0.492,0.969,0.719,0.324,0.573,0.535,�k,3.8,��
2023/07/25,08:40,0.533,0.809,0.492,0.970,0.718,0.324,0.572,0.538,�k�k��,3.4,��
2023/07/25,08:50,0.532,0.810,0.491,0.970,0.719,0.324,0.572,0.534,�k,3.3,��
2023/07/25,09:00,0.535,0.811,0.492,0.973,0.718,0.326,0.571,0.533,�k�k��,3.0,��
2023/07/25,09:10,0.535,0.811,0.492,0.971,0.719,0.324,0.573,0.535,�k��,3.1,��
2023/07/25,09:20,0.534,0.811,0.493,0.971,0.719,0.324,0.574,0.535,�k�k��,2.9,��
2023/07/25,09:30,0.534,0.809,0.492,0.970,0.719,0.325,0.573,0.534,�k�k��,3.6,��
2023/07/25,09:40,0.534,0.809,0.494,0.973,0.721,0.323,0.574,0.535,�k�k��,3.4,��
2023/07/25,09:50,0.534,0.812,0.493,0.971,0.722,0.325,0.573,0.534,�k��,3.0,��
2023/07/25,10:00,0.534,0.811,0.491,0.969,0.722,0.323,0.574,0.535,�k��,2.8,��
2023/07/25,10:10,0.534,0.811,0.493,0.973,0.721,0.324,0.573,0.535,���k��,2.6,��
2023/07/25,10:20,0.534,0.811,0.493,0.970,0.721,0.324,0.573,0.536,���k��,1.9,��
2023/07/25,10:30,0.535,0.811,0.493,0.973,0.720,0.324,0.571,0.535,���쓌,2.0,��
2023/07/25,10:40,0.533,0.812,0.492,0.970,0.720,0.324,0.573,0.534,���쓌,2.5,��
2023/07/25,10:50,0.536,0.810,0.492,0.974,0.723,0.325,0.571,0.535,���쓌,2.5,��
2023/07/25,11:00,0.536,0.810,0.492,0.972,0.723,0.325,0.572,0.536,���쓌,2.0,��
2023/07/25,11:10,0.535,0.812,0.494,0.972,0.721,0.325,0.571,0.536,���쓌,3.2,��
2023/07/25,11:20,0.535,0.812,0.493,0.972,0.722,0.324,0.571,0.537,���쓌,3.2,��
2023/07/25,11:30,0.535,0.814,0.495,0.972,0.722,0.324,0.572,0.537,���쓌,3.3,��
2023/07/25,11:40,0.536,0.813,0.492,0.970,0.726,0.324,0.572,0.536,�쓌,3.1,��
2023/07/25,11:50,0.535,0.814,0.495,0.973,0.722,0.325,0.573,0.537,���쓌,3.7,��
2023/07/25,12:00,0.535,0.814,0.493,0.973,0.726,0.325,0.572,0.537,�쓌,4.2,��
2023/07/25,12:10,0.535,0.816,0.493,0.972,0.724,0.325,0.574,0.537,�쓌,3.8,��
2023/07/25,12:20,0.536,0.814,0.496,0.973,0.723,0.325,0.574,0.537,�쓌,3.1,��
2023/07/25,12:30,0.536,0.814,0.494,0.972,0.726,0.325,0.572,0.536,�쓌,2.8,��
2023/07/25,12:40,0.537,0.817,0.494,0.973,0.723,0.325,0.572,0.537,��쓌,2.6,��
2023/07/25,12:50,0.537,0.816,0.494,0.973,0.724,0.326,0.572,0.536,��쓌,3.0,��
2023/07/25,13:00,0.537,0.815,0.496,0.974,0.724,0.326,0.573,0.536,�쓌,3.4,��
2023/07/25,13:10,0.537,0.816,0.494,0.974,0.726,0.325,0.573,0.538,��쓌,3.7,��
2023/07/25,13:20,0.538,0.814,0.495,0.973,0.727,0.325,0.572,0.537,��쓌,5.1,��
2023/07/25,13:30,0.537,0.814,0.495,0.975,0.725,0.326,0.574,0.538,��쓌,4.1,��
2023/07/25,13:40,0.537,0.815,0.495,0.974,0.725,0.325,0.573,0.537,��쓌,4.5,��
2023/07/25,13:50,0.539,0.818,0.495,0.971,0.726,0.325,0.574,0.537,��쓌,3.7,��
2023/07/25,14:00,0.536,0.819,0.495,0.972,0.726,0.326,0.573,0.539,��,3.4,��
2023/07/25,14:10,0.536,0.816,0.496,0.973,0.728,0.327,0.574,0.538,��,2.6,��
2023/07/25,14:20,0.538,0.816,0.497,0.973,0.728,0.328,0.575,0.537,��쓌,2.3,��
2023/07/25,14:30,0.538,0.818,0.496,0.973,0.727,0.327,0.576,0.539,��쓌,2.6,��
2023/07/25,14:40,0.539,0.819,0.497,0.972,0.728,0.326,0.573,0.539,��쓌,3.0,��
2023/07/25,14:50,0.539,0.820,0.499,0.973,0.726,0.326,0.575,0.537,��,3.4,��
2023/07/25,15:00,0.538,0.818,0.498,0.978,0.729,0.327,0.577,0.538,��쓌,3.0,��
2023/07/25,15:10,0.539,0.820,0.498,0.975,0.729,0.325,0.576,0.539,��쓌,2.5,��
2023/07/25,15:20,0.539,0.819,0.498,0.979,0.730,0.329,0.576,0.537,��쓌,1.7,��
2023/07/25,15:30,0.539,0.819,0.499,0.978,0.732,0.328,0.576,0.537,�쓌,2.0,��
2023/07/25,15:40,0.539,0.818,0.498,0.979,0.728,0.327,0.575,0.536,��쓌,2.0,��
2023/07/25,15:50,0.539,0.821,0.496,0.979,0.728,0.327,0.576,0.538,�쓌,2.5,��
2023/07/25,16:00,0.540,0.819,0.498,0.981,0.728,0.328,0.575,0.537,�쓌,2.5,��
2023/07/25,16:10,0.540,0.818,0.497,0.979,0.730,0.327,0.575,0.538,��쓌,2.9,��
2023/07/25,16:20,0.538,0.816,0.498,0.978,0.730,0.328,0.575,0.536,�쓌,3.1,��
2023/07/25,16:30,0.538,0.821,0.497,0.980,0.730,0.326,0.575,0.536,��쓌,4.6,��
2023/07/25,16:40,0.538,0.819,0.495,0.983,0.729,0.327,0.574,0.537,��쓌,4.0,��
2023/07/25,16:50,0.537,0.818,0.495,0.980,0.728,0.326,0.573,0.538,��쓌,3.9,��
2023/07/25,17:00,0.540,0.816,0.497,0.981,0.726,0.325,0.572,0.536,��쓌,4.7,��
2023/07/25,17:10,0.537,0.818,0.496,0.980,0.727,0.327,0.572,0.536,��쓌,4.8,��
2023/07/25,17:20,0.537,0.818,0.498,0.980,0.729,0.325,0.573,0.535,��쓌,4.9,��
2023/07/25,17:30,0.538,0.817,0.497,0.979,0.728,0.325,0.572,0.535,��쓌,5.1,��
2023/07/25,17:40,0.537,0.817,0.495,0.981,0.727,0.324,0.572,0.538,��쓌,4.3,��
2023/07/25,17:50,0.537,0.814,0.496,0.978,0.727,0.324,0.572,0.536,��쓌,4.8,��
2023/07/25,18:00,0.538,0.816,0.495,0.978,0.727,0.326,0.573,0.536,��쓌,4.8,��
2023/07/25,18:10,0.536,0.818,0.495,0.978,0.727,0.324,0.572,0.538,��,6.2,��
2023/07/25,18:20,0.538,0.818,0.493,0.978,0.727,0.326,0.572,0.536,��,5.6,��
2023/07/25,18:30,0.536,0.818,0.495,0.978,0.725,0.325,0.571,0.536,��,6.2,��
2023/07/25,18:40,0.538,0.816,0.494,0.982,0.729,0.325,0.573,0.536,��,6.1,��
2023/07/25,18:50,0.536,0.817,0.496,0.980,0.727,0.324,0.572,0.537,��,5.4,��
2023/07/25,19:00,0.535,0.817,0.495,0.981,0.727,0.324,0.572,0.536,��쐼,4.1,��
2023/07/25,19:10,0.537,0.816,0.495,0.979,0.726,0.325,0.572,0.537,��쐼,2.3,��
2023/07/25,19:20,0.537,0.816,0.494,0.982,0.725,0.325,0.571,0.536,��,1.5,��
2023/07/25,19:30,0.536,0.817,0.493,0.977,0.726,0.326,0.574,0.537,�쐼,1.2,��
2023/07/25,19:40,0.536,0.816,0.496,0.979,0.727,0.327,0.574,0.538,��쐼,1.1,��
2023/07/25,19:50,0.538,0.817,0.494,0.981,0.727,0.325,0.572,0.536,��,1.7,��
2023/07/25,20:00,0.538,0.816,0.494,0.980,0.727,0.327,0.573,0.537,��쓌,0.9,��
2023/07/25,20:10,0.539,0.820,0.497,0.979,0.728,0.327,0.572,0.536,��,1.7,��
2023/07/25,20:20,0.539,0.817,0.495,0.979,0.729,0.327,0.572,0.537,��,2.0,��
2023/07/25,20:30,0.539,0.820,0.494,0.979,0.728,0.326,0.573,0.536,��,2.3,��
2023/07/25,20:40,0.538,0.820,0.495,0.980,0.729,0.326,0.572,0.537,��,3.0,��
2023/07/25,20:50,0.540,0.819,0.494,0.978,0.730,0.327,0.573,0.538,��쐼,2.8,��
2023/07/25,21:00,0.539,0.821,0.496,0.981,0.730,0.326,0.573,0.537,��쐼,2.6,��
2023/07/25,21:10,0.539,0.817,0.497,0.983,0.729,0.326,0.572,0.539,��,2.3,��
2023/07/25,21:20,0.537,0.821,0.497,0.981,0.728,0.326,0.573,0.535,��쐼,2.5,��
2023/07/25,21:30,0.538,0.820,0.497,0.979,0.729,0.327,0.573,0.537,�쐼,2.5,��
2023/07/25,21:40,0.539,0.820,0.497,0.982,0.728,0.327,0.574,0.538,��,1.7,��
2023/07/25,21:50,0.538,0.820,0.497,0.981,0.728,0.328,0.573,0.539,�k�k��,2.6,��
2023/07/25,22:00,0.538,0.821,0.499,0.981,0.728,0.329,0.574,0.538,�k�k��,3.4,��
2023/07/25,22:10,0.538,0.820,0.498,0.981,0.729,0.329,0.574,0.538,�k�k��,3.0,��
2023/07/25,22:20,0.539,0.819,0.497,0.983,0.729,0.329,0.573,0.537,�k�k��,2.3,��
2023/07/25,22:30,0.540,0.820,0.498,0.982,0.730,0.329,0.573,0.539,�k�k��,3.2,��
2023/07/25,22:40,0.540,0.821,0.499,0.982,0.731,0.329,0.576,0.539,�k�k��,3.5,��
2023/07/25,22:50,0.540,0.819,0.497,0.979,0.728,0.328,0.575,0.539,�k,3.8,��
2023/07/25,23:00,0.537,0.819,0.498,0.981,0.728,0.327,0.574,0.538,�k,2.2,��
2023/07/25,23:10,0.539,0.819,0.497,0.981,0.728,0.327,0.574,0.538,�k�k��,2.6,��
2023/07/25,23:20,0.539,0.818,0.498,0.981,0.728,0.327,0.575,0.538,�k��,2.0,��
2023/07/25,23:30,0.539,0.821,0.497,0.981,0.727,0.328,0.575,0.538,��,1.7,��
2023/07/25,23:40,0.538,0.818,0.496,0.980,0.729,0.328,0.574,0.538,��,2.9,��
2023/07/25,23:50,0.538,0.818,0.496,0.983,0.728,0.327,0.575,0.538,���쐼,2.0,��
